TimeEDT,TemperatureF,Dew PointF,Humidity,Sea Level PressureIn,VisibilityMPH,Wind Direction,Wind SpeedMPH,Gust SpeedMPH,PrecipitationIn,Events,Conditions,WindDirDegrees,DateUTC
12:53 AM,72.0,69.1,91,29.75,9.0,SSE,6.9,-,0.01,Rain,Light Rain,160,2013-06-27 04:53:00
1:53 AM,70.0,68.0,93,29.73,3.0,SSE,4.6,-,0.10,Rain,Rain,160,2013-06-27 05:53:00
2:01 AM,69.8,68.0,94,29.76,2.0,SSE,3.5,-,0.07,Rain,Heavy Rain,150,2013-06-27 06:01:00
2:13 AM,69.8,68.0,94,29.76,1.8,South,4.6,-,0.18,Rain,Heavy Rain,180,2013-06-27 06:13:00
2:24 AM,69.8,68.0,94,29.75,1.0,South,9.2,-,0.46,Rain,Heavy Rain,180,2013-06-27 06:24:00
2:34 AM,69.8,68.0,94,29.75,0.8,South,9.2,-,0.83,Rain,Heavy Rain,180,2013-06-27 06:34:00
2:51 AM,69.8,69.8,100,29.75,1.5,South,8.1,-,1.13,Rain,Heavy Rain,170,2013-06-27 06:51:00
2:53 AM,70.0,69.1,97,29.72,1.5,South,9.2,-,1.15,Rain,Heavy Rain,180,2013-06-27 06:53:00
3:02 AM,69.8,69.8,100,29.75,1.2,SSE,10.4,-,0.13,Rain,Heavy Rain,160,2013-06-27 07:02:00
3:11 AM,69.8,69.8,100,29.75,1.5,SSE,10.4,-,0.22,Rain,Heavy Rain,160,2013-06-27 07:11:00
3:22 AM,69.8,69.8,100,29.74,3.0,South,5.8,-,0.26,Rain,Rain,190,2013-06-27 07:22:00
3:42 AM,69.8,68.0,94,29.75,2.0,SW,9.2,-,0.37,Rain,Heavy Rain,220,2013-06-27 07:42:00
3:53 AM,69.1,68.0,96,29.72,1.8,Variable,3.5,-,0.45,Rain,Heavy Rain,0,2013-06-27 07:53:00
4:00 AM,69.8,68.0,94,29.74,1.2,SSW,6.9,-,0.08,Rain,Heavy Rain,210,2013-06-27 08:00:00
4:20 AM,69.8,66.2,88,29.74,2.5,SSW,5.8,-,0.21,Rain,Rain,210,2013-06-27 08:20:00
4:27 AM,68.0,66.2,94,29.74,5.0,SSW,3.5,-,0.23,Rain,Rain,210,2013-06-27 08:27:00
4:53 AM,68.0,66.9,96,29.71,5.0,SSW,3.5,-,0.28,Rain,Light Rain,200,2013-06-27 08:53:00
5:22 AM,69.8,68.0,94,29.73,7.0,SW,3.5,-,0.00,,Overcast,220,2013-06-27 09:22:00
5:41 AM,69.8,68.0,94,29.73,6.0,Calm,Calm,-,0.00,,Mostly Cloudy,0,2013-06-27 09:41:00
5:49 AM,69.8,68.0,94,29.73,6.0,Calm,Calm,-,0.00,,Mostly Cloudy,0,2013-06-27 09:49:00
5:53 AM,70.0,68.0,93,29.71,6.0,Calm,Calm,-,0.00,,Mostly Cloudy,0,2013-06-27 09:53:00
6:09 AM,69.8,68.0,94,29.74,5.0,East,3.5,-,N/A,,Overcast,80,2013-06-27 10:09:00
6:48 AM,69.8,69.8,100,29.74,3.0,Calm,Calm,-,N/A,,Overcast,0,2013-06-27 10:48:00
6:53 AM,70.0,69.1,97,29.72,4.0,Calm,Calm,-,N/A,,Overcast,0,2013-06-27 10:53:00
7:48 AM,71.6,69.8,94,29.74,2.5,SW,3.5,-,N/A,,Overcast,230,2013-06-27 11:48:00
7:53 AM,71.1,69.1,93,29.72,3.0,West,3.5,-,N/A,,Overcast,260,2013-06-27 11:53:00
8:53 AM,73.0,70.0,90,29.72,4.0,WNW,8.1,-,N/A,,Mostly Cloudy,300,2013-06-27 12:53:00
9:01 AM,73.4,69.8,88,29.74,5.0,WNW,6.9,-,N/A,,Mostly Cloudy,300,2013-06-27 13:01:00
9:18 AM,73.4,69.8,88,29.74,6.0,NW,5.8,-,N/A,,Mostly Cloudy,310,2013-06-27 13:18:00
9:25 AM,73.4,69.8,88,29.74,7.0,NW,8.1,-,N/A,,Mostly Cloudy,320,2013-06-27 13:25:00
9:34 AM,73.4,69.8,88,29.74,6.0,NW,6.9,-,N/A,,Mostly Cloudy,310,2013-06-27 13:34:00
9:53 AM,75.0,70.0,84,29.71,6.0,NNW,6.9,-,N/A,,Haze,340,2013-06-27 13:53:00
10:53 AM,75.9,69.1,79,29.71,10.0,NW,8.1,-,N/A,,Mostly Cloudy,320,2013-06-27 14:53:00
11:53 AM,79.0,69.1,72,29.71,10.0,NW,5.8,-,N/A,,Mostly Cloudy,310,2013-06-27 15:53:00
12:15 PM,78.8,68.0,69,29.74,10.0,NW,5.8,-,N/A,,Mostly Cloudy,320,2013-06-27 16:15:00
12:53 PM,80.1,69.1,69,29.71,10.0,WNW,9.2,-,N/A,,Mostly Cloudy,300,2013-06-27 16:53:00
1:53 PM,82.0,68.0,62,29.70,10.0,NW,10.4,-,N/A,,Scattered Clouds,310,2013-06-27 17:53:00
2:53 PM,84.9,70.0,61,29.70,10.0,WNW,8.1,-,N/A,,Mostly Cloudy,300,2013-06-27 18:53:00
3:53 PM,84.9,68.0,57,29.68,10.0,WNW,9.2,-,N/A,,Mostly Cloudy,290,2013-06-27 19:53:00
4:53 PM,84.9,68.0,57,29.66,10.0,West,13.8,19.6,N/A,,Partly Cloudy,260,2013-06-27 20:53:00
5:53 PM,84.0,68.0,58,29.66,10.0,West,11.5,-,N/A,,Clear,280,2013-06-27 21:53:00
6:53 PM,84.0,68.0,58,29.66,10.0,West,12.7,17.3,N/A,,Partly Cloudy,270,2013-06-27 22:53:00
7:53 PM,79.0,66.0,64,29.66,10.0,North,8.1,-,N/A,,Mostly Cloudy,360,2013-06-27 23:53:00
8:53 PM,78.1,66.0,66,29.67,10.0,North,9.2,-,N/A,,Mostly Cloudy,10,2013-06-28 00:53:00
9:53 PM,71.1,66.0,84,29.67,10.0,East,6.9,-,N/A,,Clear,80,2013-06-28 01:53:00
10:53 PM,70.0,66.0,87,29.67,10.0,South,3.5,-,N/A,,Clear,180,2013-06-28 02:53:00
11:53 PM,69.1,66.9,93,29.63,10.0,Calm,Calm,-,N/A,,Clear,0,2013-06-28 03:53:00